Santa Monica, CA

2:44 AM PDT on May 24, 2017 (GMT -0700)
Santa Monica Municipal

Weather History for KSMO - June, 2013

Change the Weather History Date:

Thursday, June 20, 2013

  Actual Average Record
Temperature  
Mean Temperature 66 °F -  
Max Temperature 73 °F 77 °F 99 °F (1973)
Min Temperature 60 °F 59 °F 50 °F (1944)
Cooling Degree Days 2    
Growing Degree Days 16 (Base 50)    
Moisture  
Dew Point 57 °F    
Average Humidity 68    
Maximum Humidity 80    
Minimum Humidity 57    
Precipitation  
Precipitation 0.00 in - - ()
Sea Level Pressure  
Sea Level Pressure 29.84 in    
Wind  
Wind Speed 3 mph (SW)    
Max Wind Speed 10 mph    
Max Gust Speed 18 mph    
Visibility 10 miles    
Events      
Averages and records for this station are not official NWS values.
T = Trace of Precipitation, MM = Missing Value Source: NWS Daily Summary

Daily Weather History Graph

Daily Weather History Graph

Search for Another Location

Airport or City:

Trip Planner

Search our weather history database for the weather conditions in past years. The results will help you decide how hot, cold, wet, or windy it might be!

Date:

Astronomy

Jun. 20, 2013 Rise Set
Actual Time 5:42 AM PDT 8:08 PM PDT
Civil Twilight 5:13 AM PDT 8:37 PM PDT
Nautical Twilight 4:37 AM PDT 9:13 PM PDT
Astronomical Twilight 3:58 AM PDT 9:52 PM PDT
Moon 5:20 PM PDT (6/20) 3:07 AM PDT (6/20)
Length of Visible Light 15h 23m
Length of Day
14h 25m
Waxing Gibbous, 89% of the Moon is Illuminated
Jun 20
Waxing Gibbous
Jun 23
Full
Jun 29
Last Quarter
Jul 8
New
Jul 15
First Quarter

Hourly Weather History & Observations

Time (PDT) Temp. Dew Point Humidity Pressure Visibility Wind Dir Wind Speed Gust Speed Precip Events Conditions
12:51 AM 64.0 °F 57.9 °F 80% 29.82 in 10.0 mi Calm Calm - N/A   Clear
1:51 AM 63.0 °F 54.0 °F 72% 29.82 in 10.0 mi Calm Calm - N/A   Clear
2:51 AM 62.1 °F 54.0 °F 75% 29.81 in 10.0 mi Calm Calm - N/A   Clear
3:51 AM 61.0 °F 53.1 °F 75% 29.81 in 10.0 mi North 3.5 mph - N/A   Clear
4:51 AM 60.1 °F 53.1 °F 78% 29.80 in 10.0 mi Calm Calm - N/A   Clear
5:51 AM 60.1 °F 53.1 °F 78% 29.81 in 10.0 mi Calm Calm - N/A   Clear
6:51 AM 63.0 °F 53.1 °F 70% 29.83 in 10.0 mi Calm Calm - N/A   Clear
7:51 AM 66.9 °F 57.9 °F 73% 29.85 in 10.0 mi Calm Calm - N/A   Clear
8:51 AM 68.0 °F 57.9 °F 70% 29.86 in 9.0 mi SSE 4.6 mph - N/A   Clear
9:51 AM 71.1 °F 59.0 °F 66% 29.86 in 10.0 mi SSW 8.1 mph - N/A   Clear
10:51 AM 71.1 °F 57.9 °F 63% 29.87 in 10.0 mi SW 8.1 mph - N/A   Clear
11:51 AM 73.0 °F 57.9 °F 59% 29.86 in 10.0 mi SSW 10.4 mph - N/A   Clear
12:51 PM 73.9 °F 57.9 °F 57% 29.86 in 10.0 mi SW 9.2 mph - N/A   Clear
1:51 PM 73.9 °F 57.9 °F 57% 29.85 in 10.0 mi WSW 10.4 mph 18.4 mph N/A   Clear
2:51 PM 72.0 °F 57.9 °F 61% 29.84 in 10.0 mi SW 9.2 mph - N/A   Clear
3:51 PM 72.0 °F 59.0 °F 64% 29.83 in 10.0 mi SW 9.2 mph - N/A   Clear
4:51 PM 72.0 °F 57.0 °F 59% 29.83 in 10.0 mi SW 10.4 mph - N/A   Clear
5:51 PM 71.1 °F 55.9 °F 59% 29.82 in 10.0 mi WSW 9.2 mph - N/A   Clear
6:51 PM 70.0 °F 55.0 °F 59% 29.82 in 10.0 mi SW 6.9 mph - N/A   Clear
7:51 PM 69.1 °F 55.9 °F 63% 29.83 in 10.0 mi SSW 4.6 mph - N/A   Clear
8:51 PM 66.9 °F 57.0 °F 70% 29.83 in 10.0 mi SSW 3.5 mph - N/A   Clear
9:51 PM 66.9 °F 57.9 °F 73% 29.85 in 10.0 mi Calm Calm - N/A   Clear
10:51 PM 66.0 °F 57.9 °F 75% 29.85 in 10.0 mi Calm Calm - N/A   Clear
11:51 PM 66.0 °F 57.9 °F 75% 29.85 in 10.0 mi Calm Calm - N/A   Clear